Regional Weather Roundup
Issued by NWS

Home | Current Version | Previous Version | Text Only | Print | Product List | Glossary On
Versions: 1 2 3 4 5 6 7 8 9 10 11 12 13 14 15 16 17 18 19 20 21 22 23 24 25 26 27 28 29 30 31 32 33 34 35 36 37 38 39 40 41 42 43 44 45 46 47 48 49 50
400
ASUS44 KJAN 282210
RWRMS

MISSISSIPPI HOURLY WEATHER ROUNDUP
NATIONAL WEATHER SERVICE JACKSON MS
400 PM CST WED JAN 28 2015

NOTE: "FAIR: INDICATES FEW OR NO CLOUDS BELOW 12,000 FEET WITH NO
SIGNIFICANT WEATHER AND/OR OBSTRUCTIONS TO VISIBILITY.

MSZ001>002-007>008-010>013-018>021-025>028-034>036-282300-
NORTHWEST MISSISSIPPI

CITY           SKY/WX    TMP DP  RH WIND       PRES   REMARKS
CLARKSDALE     FAIR      59  39  47 SE10      30.17S
CLEVELAND      FAIR      62  42  48 S10       30.16S
GREENWOOD      SUNNY     65  35  33 SE9       30.17F
GREENVILLE     SUNNY     64  39  39 SE13      30.15F
GRENADA        FAIR      61  34  36 E7        30.18F
OLIVE BRANCH   MOSUNNY   57  34  41 S9        30.15F
OXFORD         FAIR      57  32  38 S10       30.19F
TUNICA         CLEAR     59  36  41 S13       30.16F
$$

MSZ003>006-009-014>017-022>024-029>033-037>039-282300-
NORTHEAST MISSISSIPPI

CITY           SKY/WX    TMP DP  RH WIND       PRES   REMARKS
COLUMBUS AFB   SUNNY     59  27  29 VRB7      30.22S
CORINTH        FAIR      57  28  33 S9        30.18S
GOLDN TRIANGLE SUNNY     57  30  35 S7        30.22S
STARKVILLE     FAIR      59  30  33 SE5       30.22S
TUPELO         SUNNY     57  30  35 S7        30.21S
$$

MSZ040-058-282300-
CENTRAL MISSISSIPPI

CITY           SKY/WX    TMP DP  RH WIND       PRES   REMARKS
JACKSON INTL   MOSUNNY   68  34  28 S7        30.18F
JACKSON HAWKNS NOT AVBL
MERIDIAN KEY   SUNNY     64  24  21 CALM      30.21F
MERIDIAN NAS   SUNNY     63  25  23 CALM      30.22S
RAYMOND        FAIR      70  64  83 S10       30.18S
VICKSBURG      SUNNY     71  38  29 SE10      30.16F
$$

MSZ059>079-282300-
SOUTH MISSISSIPPI

CITY           SKY/WX    TMP DP  RH WIND       PRES   REMARKS
BROOKHAVEN     FAIR      70  37  30 SE3       30.20F
HATTIESBURG    SUNNY     68  32  26 CALM      30.22F
MCCOMB         SUNNY     69  38  32 S9        30.20S
NATCHEZ        SUNNY     73  36  25 S7        30.18S
PINE BELT      SUNNY     66  32  28 SE3       30.23F
$$

MSZ080>082-282300-
COASTAL MISSISSIPPI

CITY           SKY/WX    TMP DP  RH WIND       PRES   REMARKS
BILOXI         SUNNY     57  42  58 SW8       30.24S
PASCAGOULA     SUNNY     62  40  44 VRB6      30.23S
GULFPORT       SUNNY     58  42  55 S7        30.23
$$



USA.gov is the U.S. government's official web portal to all federal, state and local government web resources and services.